| time (UTC) | temp F | wind direction | speed MPH | gust MPH | rain 1hr in | rain 24hr in | rain mn in | humidity % | barometer mb |
| 20260901171803 | 75 | 355 | 2.0 | 6.0 | 0.00 | 0.00 | 0.00 | 74 | 1018.1 |
| 20260901170905 | 76 | 346 | 0.0 | 26.0 | 0.00 | 0.00 | 0.00 | 73 | 1018.1 |
| 20260901170003 | 76 | 345 | 26.0 | 32.0 | 0.00 | 0.00 | 0.00 | 72 | 1018.1 |
| 20260901165403 | 76 | 359 | 11.0 | 39.0 | 0.00 | 0.00 | 0.00 | 72 | 1018.1 |
| 20260901164505 | 75 | 348 | 1.0 | 35.0 | 0.00 | 0.00 | 0.00 | 72 | 1018.1 |
| 20260901163605 | 76 | 341 | 4.0 | 4.0 | 0.00 | 0.00 | 0.00 | 71 | 1018.1 |
| 20260901162703 | 76 | 3 | 4.0 | 9.0 | 0.00 | 0.00 | 0.00 | 71 | 1018.1 |
| 20260901161805 | 76 | 355 | 0.0 | 22.0 | 0.00 | 0.00 | 0.00 | 72 | 1018.1 |
| 20260901160903 | 76 | 354 | 4.0 | 6.0 | 0.00 | 0.00 | 0.00 | 72 | 1018.1 |
| 20260901160005 | 76 | 8 | 3.0 | 17.0 | 0.00 | 0.00 | 0.00 | 72 | 1018.1 |
| 20260901155403 | 75 | 9 | 4.0 | 22.0 | 0.00 | 0.00 | 0.00 | 72 | 1018.1 |
| 20260901154714 | 76 | 4 | 4.0 | 22.0 | 0.00 | 0.00 | 0.00 | 72 | 1018.1 |
| 20260901153605 | 75 | 352 | 0.0 | 5.0 | 0.00 | 0.00 | 0.00 | 72 | 1018.1 |
| 20260901152705 | 76 | 347 | 3.0 | 6.0 | 0.00 | 0.00 | 0.00 | 71 | 1018.1 |
| 20260901152012 | 76 | 355 | 6.0 | 6.0 | 0.00 | 0.00 | 0.00 | 70 | 1018.1 |
| 20260901150903 | 76 | 346 | 4.0 | 5.0 | 0.00 | 0.00 | 0.00 | 70 | 1018.1 |
| 20260901150003 | 77 | 1 | 0.0 | 7.0 | 0.00 | 0.00 | 0.00 | 69 | 1018.1 |
| 20260901145404 | 77 | 6 | 7.0 | 8.0 | 0.00 | 0.00 | 0.00 | 69 | 1018.1 |
| 20260901144503 | 77 | 343 | 8.0 | 22.0 | 0.00 | 0.00 | 0.00 | 69 | 1018.1 |
| 20260901143814 | 77 | 15 | 0.0 | 6.0 | 0.00 | 0.00 | 0.00 | 69 | 1018.1 |
| 20260901142705 | 77 | 330 | 1.0 | 32.0 | 0.00 | 0.00 | 0.00 | 68 | 1018.1 |
| 20260901142014 | 77 | 332 | 0.0 | 32.0 | 0.00 | 0.00 | 0.00 | 67 | 1018.1 |
| 20260901141113 | 78 | 339 | 0.0 | 4.0 | 0.00 | 0.00 | 0.00 | 67 | 1018.1 |
| 20260901140005 | 78 | 331 | 0.0 | 65.0 | 0.00 | 0.00 | 0.00 | 67 | 1018.1 |
| 20260901135405 | 78 | 329 | 23.0 | 65.0 | 0.00 | 0.00 | 0.00 | 68 | 1018.1 |
| 20260901134505 | 78 | 357 | 0.0 | 4.0 | 0.00 | 0.00 | 0.00 | 67 | 1018.1 |
| 20260901133603 | 78 | 3 | 0.0 | 37.0 | 0.00 | 0.00 | 0.00 | 67 | 1019.1 |
| 20260901132703 | 78 | 347 | 0.0 | 25.0 | 0.00 | 0.00 | 0.00 | 67 | 1019.1 |
| 20260901131803 | 79 | 357 | 3.0 | 5.0 | 0.00 | 0.00 | 0.00 | 66 | 1019.1 |
| 20260901130903 | 80 | 12 | 4.0 | 26.0 | 0.00 | 0.00 | 0.00 | 66 | 1019.1 |
| 20260901130003 | 80 | 333 | 0.0 | 2.0 | 0.00 | 0.00 | 0.00 | 66 | 1019.1 |
| 20260901125403 | 81 | 356 | 0.0 | 5.0 | 0.00 | 0.00 | 0.00 | 66 | 1019.1 |
| 20260901124505 | 81 | 344 | 0.0 | 9.0 | 0.00 | 0.00 | 0.00 | 66 | 1019.1 |
| 20260901123603 | 80 | 8 | 0.0 | 6.0 | 0.00 | 0.00 | 0.00 | 66 | 1019.1 |
| 20260901122703 | 81 | 315 | 6.0 | 27.0 | 0.00 | 0.00 | 0.00 | 65 | 1019.1 |
| 20260901122013 | 82 | 336 | 0.0 | 46.0 | 0.00 | 0.00 | 0.00 | 66 | 1019.1 |
| 20260901120903 | 83 | 355 | 1.0 | 37.0 | 0.00 | 0.00 | 0.00 | 66 | 1019.1 |
| 20260901120003 | 83 | 334 | 0.0 | 8.0 | 0.00 | 0.00 | 0.00 | 66 | 1019.1 |
| 20260901115614 | 83 | 339 | 0.0 | 6.0 | 0.00 | 0.00 | 0.00 | 66 | 1019.1 |
| 20260901114503 | 83 | 342 | 0.0 | 50.0 | 0.00 | 0.00 | 0.00 | 66 | 1019.1 |
| 20260901113606 | 84 | 360 | 24.0 | 24.0 | 0.00 | 0.00 | 0.00 | 64 | 1019.1 |
| 20260901112705 | 83 | 0 | 0.0 | 0.0 | 0.00 | 0.00 | 0.00 | 63 | 1019.1 |
| 20260901111803 | 82 | 48 | 0.0 | 39.0 | 0.00 | 0.00 | 0.00 | 65 | 1019.1 |
| 20260901110904 | 81 | 170 | 0.0 | 70.0 | 0.00 | 0.00 | 0.00 | 67 | 1019.1 |
| 20260901110003 | 81 | 0 | 0.0 | 0.0 | 0.00 | 0.00 | 0.00 | 68 | 1019.1 |
| 20260901105405 | 79 | 0 | 0.0 | 0.0 | 0.00 | 0.00 | 0.00 | 68 | 1019.1 |
| 20260901104503 | 80 | 0 | 0.0 | 0.0 | 0.00 | 0.00 | 0.00 | 69 | 1019.1 |
| 20260901103603 | 78 | 0 | 0.0 | 0.0 | 0.00 | 0.00 | 0.00 | 71 | 1020.1 |
| 20260901102705 | 79 | 327 | 0.0 | 3.0 | 0.00 | 0.00 | 0.00 | 73 | 1020.1 |
| 20260901101803 | 79 | 3 | 2.0 | 67.0 | 0.00 | 0.00 | 0.00 | 73 | 1019.1 |
| 20260901101114 | 78 | 337 | 0.0 | 26.0 | 0.00 | 0.00 | 0.00 | 75 | 1019.1 |
| 20260901100005 | 77 | 0 | 0.0 | 0.0 | 0.00 | 0.00 | 0.00 | 76 | 1020.1 |
| 20260901095405 | 77 | 0 | 0.0 | 0.0 | 0.00 | 0.00 | 0.00 | 77 | 1020.1 |
| 20260901094712 | 76 | 0 | 0.0 | 0.0 | 0.00 | 0.00 | 0.00 | 78 | 1020.1 |
| 20260901093603 | 76 | 10 | 0.0 | 39.0 | 0.00 | 0.00 | 0.00 | 79 | 1020.1 |
| 20260901092703 | 74 | 0 | 0.0 | 0.0 | 0.00 | 0.00 | 0.00 | 80 | 1020.1 |
| 20260901091806 | 74 | 0 | 0.0 | 0.0 | 0.00 | 0.00 | 0.00 | 81 | 1020.1 |
| 20260901090905 | 74 | 0 | 0.0 | 0.0 | 0.00 | 0.00 | 0.00 | 83 | 1020.1 |
| 20260901090005 | 73 | 45 | 0.0 | 31.0 | 0.00 | 0.00 | 0.00 | 85 | 1020.1 |
| 20260901085403 | 73 | 41 | 0.0 | 31.0 | 0.00 | 0.00 | 0.00 | 85 | 1019.1 |
| 20260901084716 | 72 | 22 | 0.0 | 4.0 | 0.00 | 0.00 | 0.00 | 86 | 1019.1 |
| 20260901083605 | 71 | 45 | 39.0 | 39.0 | 0.00 | 0.00 | 0.00 | 89 | 1020.1 |
| 20260901082915 | 71 | 22 | 0.0 | 11.0 | 0.00 | 0.00 | 0.00 | 89 | 1020.1 |
| 20260901081805 | 70 | 28 | 26.0 | 49.0 | 0.00 | 0.00 | 0.00 | 91 | 1020.1 |
| 20260901080903 | 69 | 90 | 26.0 | 26.0 | 0.00 | 0.00 | 0.00 | 92 | 1020.1 |
| 20260901080005 | 68 | 0 | 0.0 | 0.0 | 0.00 | 0.00 | 0.00 | 94 | 1020.1 |
| 20260901075405 | 67 | 9 | 0.0 | 77.0 | 0.00 | 0.00 | 0.00 | 95 | 1020.1 |
| 20260901074503 | 66 | 22 | 0.0 | 27.0 | 0.00 | 0.00 | 0.00 | 95 | 1020.1 |
| 20260901073603 | 65 | 0 | 0.0 | 0.0 | 0.00 | 0.00 | 0.00 | 97 | 1020.1 |
| 20260901072703 | 65 | 0 | 0.0 | 0.0 | 0.00 | 0.00 | 0.00 | 97 | 1020.1 |
| 20260901071803 | 65 | 22 | 0.0 | 13.0 | 0.00 | 0.00 | 0.00 | 98 | 1020.1 |
| 20260901070903 | 64 | 22 | 0.0 | 13.0 | 0.00 | 0.00 | 0.00 | 98 | 1020.1 |
| 20260901070003 | 63 | 0 | 0.0 | 0.0 | 0.00 | 0.00 | 0.00 | 98 | 1020.1 |
| 20260901065403 | 63 | 0 | 0.0 | 0.0 | 0.00 | 0.00 | 0.00 | 98 | 1020.1 |
| 20260901064503 | 62 | 22 | 0.0 | 25.0 | 0.00 | 0.00 | 0.00 | 98 | 1020.1 |
| 20260901063813 | 62 | 0 | 0.0 | 0.0 | 0.00 | 0.00 | 0.00 | 98 | 1020.1 |
| 20260901062914 | 61 | 0 | 0.0 | 0.0 | 0.00 | 0.00 | 0.00 | 98 | 1020.1 |
| 20260901061803 | 61 | 0 | 0.0 | 0.0 | 0.00 | 0.00 | 0.00 | 98 | 1020.1 |
| 20260901060903 | 61 | 0 | 0.0 | 0.0 | 0.00 | 0.00 | 0.00 | 98 | 1020.1 |
| 20260901060003 | 61 | 0 | 0.0 | 0.0 | 0.00 | 0.00 | 0.00 | 98 | 1020.1 |
| 20260901055616 | 61 | 0 | 0.0 | 0.0 | 0.00 | 0.00 | 0.00 | 98 | 1020.1 |
| 20260901054503 | 61 | 0 | 0.0 | 0.0 | 0.00 | 0.00 | 0.00 | 98 | 1020.1 |
| 20260901053603 | 61 | 0 | 0.0 | 0.0 | 0.00 | 0.00 | 0.00 | 98 | 1020.1 |
| 20260901052703 | 61 | 0 | 0.0 | 0.0 | 0.00 | 0.00 | 0.00 | 97 | 1020.1 |
| 20260901051803 | 61 | 0 | 0.0 | 0.0 | 0.00 | 0.00 | 0.00 | 97 | 1020.1 |
| 20260901051116 | 61 | 0 | 0.0 | 0.0 | 0.00 | 0.00 | 0.00 | 97 | 1020.1 |
| 20260901050003 | 62 | 0 | 0.0 | 0.0 | 0.00 | 0.00 | 0.00 | 97 | 1019.1 |
| 20260901045403 | 62 | 0 | 0.0 | 0.0 | 0.00 | 0.00 | 0.00 | 97 | 1020.1 |
| 20260901044505 | 62 | 0 | 0.0 | 0.0 | 0.00 | 0.00 | 0.00 | 96 | 1020.1 |
| 20260901043603 | 62 | 0 | 0.0 | 0.0 | 0.00 | 0.00 | 0.00 | 96 | 1020.1 |
| 20260901042913 | 62 | 0 | 0.0 | 0.0 | 0.00 | 0.00 | 0.00 | 96 | 1020.1 |
| 20260901041803 | 63 | 0 | 0.0 | 0.0 | 0.00 | 0.00 | 0.00 | 96 | 1020.1 |
| 20260901040905 | 63 | 0 | 0.0 | 0.0 | 0.00 | 0.00 | 0.00 | 96 | 1020.1 |
| 20260901040003 | 63 | 0 | 0.0 | 0.0 | 0.00 | 0.00 | 0.00 | 96 | 1020.1 |
| 20260901035613 | 63 | 0 | 0.0 | 0.0 | 0.00 | 0.00 | 0.00 | 95 | 1020.1 |
| 20260901034714 | 63 | 0 | 0.0 | 0.0 | 0.00 | 0.00 | 0.00 | 95 | 1020.1 |
| 20260901033603 | 64 | 0 | 0.0 | 0.0 | 0.00 | 0.00 | 0.00 | 95 | 1020.1 |
| 20260901032913 | 64 | 0 | 0.0 | 0.0 | 0.00 | 0.00 | 0.00 | 95 | 1020.1 |
| 20260901031805 | 64 | 0 | 0.0 | 0.0 | 0.00 | 0.00 | 0.00 | 95 | 1020.1 |
| 20260901030903 | 64 | 0 | 0.0 | 0.0 | 0.00 | 0.00 | 0.00 | 95 | 1020.1 |
| 20260901030003 | 64 | 0 | 0.0 | 0.0 | 0.00 | 0.00 | 0.00 | 95 | 1020.1 |
| 20260901025404 | 64 | 0 | 0.0 | 0.0 | 0.00 | 0.00 | 0.00 | 95 | 1020.1 |
| 20260901024503 | 64 | 337 | 0.0 | 1.0 | 0.00 | 0.00 | 0.00 | 95 | 1020.1 |
| 20260901023603 | 64 | 0 | 0.0 | 0.0 | 0.00 | 0.00 | 0.00 | 94 | 1020.1 |
| 20260901022706 | 64 | 90 | 0.0 | 13.0 | 0.00 | 0.00 | 0.00 | 94 | 1020.1 |
| 20260901022014 | 64 | 90 | 0.0 | 13.0 | 0.00 | 0.00 | 0.00 | 94 | 1020.1 |
| 20260901020903 | 64 | 0 | 0.0 | 0.0 | 0.00 | 0.00 | 0.00 | 94 | 1020.1 |
| 20260901020003 | 64 | 0 | 0.0 | 0.0 | 0.00 | 0.00 | 0.00 | 94 | 1020.1 |
| 20260901015403 | 64 | 0 | 0.0 | 0.0 | 0.00 | 0.00 | 0.00 | 94 | 1021.1 |
| 20260901014505 | 65 | 0 | 0.0 | 0.0 | 0.00 | 0.00 | 0.00 | 94 | 1021.1 |
| 20260901013603 | 64 | 0 | 0.0 | 0.0 | 0.00 | 0.00 | 0.00 | 94 | 1021.1 |
| 20260901012705 | 64 | 0 | 0.0 | 0.0 | 0.00 | 0.00 | 0.00 | 94 | 1021.1 |
| 20260901011803 | 64 | 67 | 0.0 | 23.0 | 0.00 | 0.00 | 0.00 | 94 | 1021.1 |
| 20260901011113 | 64 | 0 | 0.0 | 0.0 | 0.00 | 0.00 | 0.00 | 94 | 1021.1 |
| 20260901010003 | 64 | 0 | 0.0 | 0.0 | 0.00 | 0.00 | 0.00 | 95 | 1021.1 |
| 20260901005616 | 64 | 0 | 0.0 | 0.0 | 0.00 | 0.00 | 0.00 | 95 | 1021.1 |
| 20260901004503 | 64 | 0 | 0.0 | 0.0 | 0.00 | 0.00 | 0.00 | 95 | 1021.1 |
| 20260901003603 | 64 | 67 | 0.0 | 40.0 | 0.00 | 0.00 | 0.00 | 95 | 1021.1 |
| 20260901002914 | 64 | 67 | 0.0 | 40.0 | 0.00 | 0.00 | 0.00 | 95 | 1021.1 |
| 20260901001803 | 63 | 0 | 0.0 | 0.0 | 0.00 | 0.00 | 0.00 | 95 | 1021.1 |
| 20260901001114 | 63 | 0 | 0.0 | 0.0 | 0.00 | 0.00 | 0.00 | 95 | 1021.1 |
| 20260901000005 | 63 | 0 | 0.0 | 0.0 | 0.00 | 0.00 | 0.00 | 95 | 1021.1 |
| 20260831235403 | 63 | 0 | 0.0 | 0.0 | 0.00 | 0.00 | 0.00 | 95 | 1021.1 |
| 20260831234713 | 63 | 0 | 0.0 | 0.0 | 0.00 | 0.00 | 0.00 | 94 | 1021.1 |
| 20260831233603 | 63 | 0 | 0.0 | 0.0 | 0.00 | 0.00 | 0.00 | 94 | 1021.1 |
| 20260831232913 | 63 | 0 | 0.0 | 0.0 | 0.00 | 0.00 | 0.00 | 94 | 1021.1 |
| 20260831231803 | 63 | 0 | 0.0 | 0.0 | 0.00 | 0.00 | 0.00 | 94 | 1021.1 |
| 20260831231114 | 63 | 0 | 0.0 | 0.0 | 0.00 | 0.00 | 0.00 | 93 | 1021.1 |
| 20260831230215 | 63 | 0 | 0.0 | 0.0 | 0.00 | 0.00 | 0.00 | 93 | 1021.1 |
| 20260831225613 | 63 | 0 | 0.0 | 0.0 | 0.00 | 0.00 | 0.00 | 93 | 1021.1 |
| 20260831224503 | 63 | 0 | 0.0 | 0.0 | 0.00 | 0.00 | 0.00 | 93 | 1021.1 |
| 20260831223603 | 63 | 0 | 0.0 | 0.0 | 0.00 | 0.00 | 0.00 | 92 | 1021.1 |
| 20260831222703 | 63 | 0 | 0.0 | 0.0 | 0.00 | 0.00 | 0.00 | 92 | 1021.1 |
| 20260831221803 | 64 | 0 | 0.0 | 0.0 | 0.00 | 0.00 | 0.00 | 92 | 1021.1 |
| 20260831220903 | 64 | 0 | 0.0 | 0.0 | 0.00 | 0.00 | 0.00 | 91 | 1021.1 |
| 20260831220004 | 64 | 0 | 0.0 | 0.0 | 0.00 | 0.00 | 0.00 | 91 | 1021.1 |
| 20260831215404 | 64 | 0 | 0.0 | 0.0 | 0.00 | 0.00 | 0.00 | 91 | 1021.1 |
| 20260831214503 | 64 | 0 | 0.0 | 0.0 | 0.00 | 0.00 | 0.00 | 91 | 1021.1 |
| 20260831213603 | 64 | 0 | 0.0 | 0.0 | 0.00 | 0.00 | 0.00 | 91 | 1021.1 |
| 20260831212912 | 64 | 0 | 0.0 | 0.0 | 0.00 | 0.00 | 0.00 | 90 | 1021.1 |
| 20260831212016 | 64 | 0 | 0.0 | 0.0 | 0.00 | 0.00 | 0.00 | 89 | 1021.1 |
| 20260831210903 | 65 | 0 | 0.0 | 0.0 | 0.00 | 0.00 | 0.00 | 88 | 1021.1 |
| 20260831210005 | 65 | 0 | 0.0 | 0.0 | 0.00 | 0.00 | 0.00 | 88 | 1021.1 |
| 20260831205404 | 65 | 0 | 0.0 | 0.0 | 0.00 | 0.00 | 0.00 | 88 | 1021.1 |
| 20260831204505 | 66 | 0 | 0.0 | 0.0 | 0.00 | 0.00 | 0.00 | 86 | 1021.1 |
| 20260831203603 | 66 | 0 | 0.0 | 0.0 | 0.00 | 0.00 | 0.00 | 86 | 1021.1 |
| 20260831202703 | 66 | 0 | 0.0 | 0.0 | 0.00 | 0.00 | 0.00 | 85 | 1021.1 |
| 20260831202016 | 67 | 0 | 0.0 | 0.0 | 0.00 | 0.00 | 0.00 | 84 | 1021.1 |
| 20260831200905 | 67 | 0 | 0.0 | 0.0 | 0.00 | 0.00 | 0.00 | 84 | 1021.1 |
| 20260831200003 | 68 | 0 | 0.0 | 0.0 | 0.00 | 0.00 | 0.00 | 83 | 1021.1 |
| 20260831195403 | 68 | 0 | 0.0 | 0.0 | 0.00 | 0.00 | 0.00 | 83 | 1021.1 |
| 20260831194503 | 68 | 0 | 0.0 | 0.0 | 0.00 | 0.00 | 0.00 | 82 | 1021.1 |
| 20260831193606 | 69 | 0 | 0.0 | 0.0 | 0.00 | 0.00 | 0.00 | 82 | 1021.1 |
| 20260831192914 | 69 | 0 | 0.0 | 0.0 | 0.00 | 0.00 | 0.00 | 81 | 1021.1 |
| 20260831191803 | 69 | 0 | 0.0 | 0.0 | 0.00 | 0.00 | 0.00 | 81 | 1021.1 |
| 20260831191112 | 70 | 0 | 0.0 | 0.0 | 0.00 | 0.00 | 0.00 | 80 | 1021.1 |
| 20260831190005 | 70 | 0 | 0.0 | 0.0 | 0.00 | 0.00 | 0.00 | 80 | 1021.1 |
| 20260831185403 | 70 | 0 | 0.0 | 0.0 | 0.00 | 0.00 | 0.00 | 79 | 1021.1 |
| 20260831184713 | 70 | 0 | 0.0 | 0.0 | 0.00 | 0.00 | 0.00 | 79 | 1021.1 |
| 20260831183603 | 71 | 0 | 0.0 | 0.0 | 0.00 | 0.00 | 0.00 | 78 | 1021.1 |
| 20260831182705 | 71 | 0 | 0.0 | 0.0 | 0.00 | 0.00 | 0.00 | 77 | 1021.1 |
| 20260831181803 | 71 | 0 | 0.0 | 0.0 | 0.00 | 0.00 | 0.00 | 76 | 1021.1 |
| 20260831180904 | 72 | 0 | 0.0 | 0.0 | 0.00 | 0.00 | 0.00 | 75 | 1021.1 |
| 20260831180005 | 72 | 0 | 0.0 | 0.0 | 0.00 | 0.00 | 0.00 | 74 | 1021.1 |
| 20260831175613 | 72 | 0 | 0.0 | 0.0 | 0.00 | 0.00 | 0.00 | 74 | 1021.1 |
| 20260831174506 | 72 | 0 | 0.0 | 0.0 | 0.00 | 0.00 | 0.00 | 74 | 1021.1 |
| 20260831173603 | 73 | 0 | 0.0 | 0.0 | 0.00 | 0.00 | 0.00 | 73 | 1020.1 |
| 20260831172916 | 73 | 13 | 0.0 | 11.0 | 0.00 | 0.00 | 0.00 | 72 | 1020.1 |